Volver al catálogo

STARLINK-34418

ActivoComunicacionesVLEO
NORAD 64461·PAYLOAD·🇺🇸 United States

Lanzado Jun 18, 2025 desde Cape Canaveral Space Force Station

Loading…

Próximos Pases (próximas 24 horas)

TLE

ActualizadoSource: CelesTrak SupGP

Época: Sep 15, 2026, 03:35 UTC

1 64461C 25130Z   26258.14979167 -.00002180  00000+0 -64406-4 0  2583
2 64461  53.1570 286.4556 0001212  95.1463 106.6847 15.34385310    10

Sigue STARLINK-34418 en tiempo real con AllMySat

Download on the App Store